Waseca, MN

10:39 PM CDT on March 26, 2017 (GMT -0500)
Waseca Municipal

Weather History for KACQ - October, 2012

Change the Weather History Date:

Monday, October 1, 2012

  Actual Average Record
Temperature  
Mean Temperature 60 °F -  
Max Temperature 73 °F 68 °F 86 °F (2006)
Min Temperature 46 °F 42 °F 26 °F (1920)
Degree Days  
Heating Degree Days 6    
Growing Degree Days 10 (Base 50)    
Moisture  
Dew Point 38 °F    
Average Humidity 44    
Maximum Humidity 67    
Minimum Humidity 23    
Precipitation  
Precipitation 0.00 in - - ()
Sea Level Pressure  
Sea Level Pressure 29.92 in    
Wind  
Wind Speed 8 mph (NNW)    
Max Wind Speed 23 mph    
Max Gust Speed 29 mph    
Visibility 10 miles    
Events      
Averages and records for this station are not official NWS values.
T = Trace of Precipitation, MM = Missing Value Source: NWS Daily Summary

Daily Weather History Graph

Daily Weather History Graph

Search for Another Location

Airport or City:

Trip Planner

Search our weather history database for the weather conditions in past years. The results will help you decide how hot, cold, wet, or windy it might be!

Date:

Astronomy

Oct. 01, 2012 Rise Set
Actual Time 7:12 AM CDT 6:54 PM CDT
Civil Twilight 6:43 AM CDT 7:22 PM CDT
Nautical Twilight 6:10 AM CDT 7:56 PM CDT
Astronomical Twilight 5:36 AM CDT 8:30 PM CDT
Moon 7:25 PM CDT (10/1) 8:47 AM CDT (10/1)
Length of Visible Light 12h 39m
Length of Day
11h 41m
Full, 98% of the Moon is Illuminated
Oct 1
Full
Oct 8
Last Quarter
Oct 15
New
Oct 21
First Quarter
Oct 29
Full

Hourly Weather History & Observations

Time (CDT) Temp. Windchill Dew Point Humidity Pressure Visibility Wind Dir Wind Speed Gust Speed Precip Events Conditions
12:12 AM 55.4 °F - 33.8 °F 44% 29.92 in 10.0 mi Calm Calm - N/A   Clear
12:32 AM 53.6 °F - 33.8 °F 47% 29.91 in 10.0 mi Calm Calm - N/A   Clear
1:12 AM 53.6 °F - 35.6 °F 51% 29.91 in 10.0 mi Calm Calm - N/A   Clear
1:32 AM 53.6 °F - 33.8 °F 47% 29.91 in 10.0 mi South 3.5 mph - N/A   Clear
1:53 AM 53.6 °F - 33.8 °F 47% 29.91 in 10.0 mi South 4.6 mph - N/A   Clear
2:33 AM 53.6 °F - 35.6 °F 51% 29.90 in 10.0 mi South 3.5 mph - N/A   Clear
3:33 AM 53.6 °F - 37.4 °F 54% 29.88 in 10.0 mi South 5.8 mph - N/A   Clear
3:52 AM 53.6 °F - 37.4 °F 54% 29.88 in 10.0 mi South 4.6 mph - N/A   Clear
4:13 AM 53.6 °F - 37.4 °F 54% 29.88 in 10.0 mi SSW 4.6 mph - N/A   Clear
4:32 AM 53.6 °F - 37.4 °F 54% 29.87 in 10.0 mi South 4.6 mph - N/A   Clear
4:53 AM 51.8 °F - 35.6 °F 54% 29.88 in 10.0 mi SSW 5.8 mph - N/A   Clear
5:12 AM 50.0 °F - 35.6 °F 58% 29.88 in 10.0 mi SSW 4.6 mph - N/A   Clear
5:33 AM 51.8 °F - 35.6 °F 54% 29.88 in 10.0 mi SW 5.8 mph - N/A   Clear
5:52 AM 48.2 °F - 33.8 °F 58% 29.89 in 10.0 mi WSW 4.6 mph - N/A   Clear
6:13 AM 46.4 °F 44.3 °F 33.8 °F 62% 29.89 in 10.0 mi West 4.6 mph - N/A   Clear
6:33 AM 46.4 °F 43.5 °F 33.8 °F 62% 29.89 in 10.0 mi WNW 5.8 mph - N/A   Clear
7:12 AM 53.6 °F - 41.0 °F 62% 29.90 in 10.0 mi NW 5.8 mph - N/A   Clear
7:33 AM 53.6 °F - 42.8 °F 67% 29.91 in 10.0 mi NW 9.2 mph - N/A   Clear
7:53 AM 55.4 °F - 42.8 °F 63% 29.92 in 10.0 mi NW 6.9 mph - N/A   Clear
8:13 AM 55.4 °F - 44.6 °F 67% 29.92 in 10.0 mi NW 5.8 mph - N/A   Clear
8:32 AM 59.0 °F - 44.6 °F 59% 29.93 in 10.0 mi NNW 10.4 mph - N/A   Clear
8:53 AM 60.8 °F - 44.6 °F 55% 29.93 in 10.0 mi NNW 11.5 mph - N/A   Clear
9:13 AM 62.6 °F - 44.6 °F 52% 29.93 in 10.0 mi NNW 11.5 mph - N/A   Clear
9:33 AM 62.6 °F - 42.8 °F 48% 29.93 in 10.0 mi NNW 11.5 mph 17.3 mph N/A   Clear
9:52 AM 64.4 °F - 42.8 °F 45% 29.93 in 10.0 mi NNW 17.3 mph - N/A   Clear
10:13 AM 64.4 °F - 41.0 °F 42% 29.93 in 10.0 mi NNW 20.7 mph 27.6 mph N/A   Clear
10:33 AM 64.4 °F - 41.0 °F 42% 29.94 in 10.0 mi North 16.1 mph 21.9 mph N/A   Clear
10:53 AM 68.0 °F - 41.0 °F 37% 29.94 in 10.0 mi North 15.0 mph - N/A   Scattered Clouds
11:13 AM 68.0 °F - 41.0 °F 37% 29.94 in 10.0 mi NNW 16.1 mph - N/A   Scattered Clouds
11:32 AM 68.0 °F - 39.2 °F 35% 29.94 in 10.0 mi NW 17.3 mph 21.9 mph N/A   Clear
12:13 PM 71.6 °F - 39.2 °F 31% 29.93 in 10.0 mi NNW 17.3 mph 24.2 mph N/A   Clear
12:33 PM 71.6 °F - 41.0 °F 33% 29.93 in 10.0 mi NNW 16.1 mph - N/A   Clear
12:53 PM 71.6 °F - 41.0 °F 33% 29.93 in 10.0 mi WNW 19.6 mph 24.2 mph N/A   Clear
1:12 PM 69.8 °F - 41.0 °F 35% 29.93 in 10.0 mi North 18.4 mph 25.3 mph N/A   Clear
1:33 PM 71.6 °F - 41.0 °F 33% 29.92 in 10.0 mi NW 17.3 mph 25.3 mph N/A   Clear
1:53 PM 71.6 °F - 42.8 °F 35% 29.92 in 10.0 mi NNW 21.9 mph 28.8 mph N/A   Clear
2:12 PM 71.6 °F - 42.8 °F 35% 29.92 in 10.0 mi North 23.0 mph 27.6 mph N/A   Clear
2:53 PM 71.6 °F - 44.6 °F 38% 29.92 in 10.0 mi NNW 19.6 mph 27.6 mph N/A   Clear
3:13 PM 71.6 °F - 44.6 °F 38% 29.91 in 10.0 mi NNW 20.7 mph 25.3 mph N/A   Clear
3:32 PM 71.6 °F - 44.6 °F 38% 29.91 in 10.0 mi North 20.7 mph 27.6 mph N/A   Clear
3:53 PM 73.4 °F - 44.6 °F 36% 29.91 in 10.0 mi NNW 20.7 mph 24.2 mph N/A   Clear
4:13 PM 71.6 °F - 41.0 °F 33% 29.91 in 10.0 mi NNW 16.1 mph 23.0 mph N/A   Clear
4:32 PM 71.6 °F - 33.8 °F 25% 29.92 in 10.0 mi North 18.4 mph 26.5 mph N/A   Clear
4:53 PM 71.6 °F - 32.0 °F 23% 29.92 in 10.0 mi North 13.8 mph 21.9 mph N/A   Clear
5:13 PM 71.6 °F - 33.8 °F 25% 29.92 in 10.0 mi North 16.1 mph 19.6 mph N/A   Clear
5:32 PM 69.8 °F - 32.0 °F 25% 29.92 in 10.0 mi North 12.7 mph - N/A   Clear
5:53 PM 69.8 °F - 33.8 °F 27% 29.93 in 10.0 mi North 10.4 mph - N/A   Clear
6:12 PM 68.0 °F - 33.8 °F 28% 29.93 in 10.0 mi North 8.1 mph - N/A   Clear
6:33 PM 64.4 °F - 35.6 °F 34% 29.93 in 10.0 mi North 4.6 mph - N/A   Clear
6:53 PM 62.6 °F - 35.6 °F 37% 29.93 in 10.0 mi NNW 6.9 mph - N/A   Clear
7:12 PM 59.0 °F - 35.6 °F 42% 29.93 in 10.0 mi NNW 5.8 mph - N/A   Clear
7:33 PM 59.0 °F - 35.6 °F 42% 29.93 in 10.0 mi North 8.1 mph - N/A   Clear
7:53 PM 59.0 °F - 35.6 °F 42% 29.94 in 10.0 mi NNW 9.2 mph - N/A   Clear
8:12 PM 59.0 °F - 37.4 °F 45% 29.94 in 10.0 mi NNW 8.1 mph - N/A   Clear
8:33 PM 59.0 °F - 35.6 °F 42% 29.95 in 10.0 mi NNW 9.2 mph - N/A   Clear
8:53 PM 59.0 °F - 35.6 °F 42% 29.95 in 10.0 mi NNW 9.2 mph - N/A   Clear
9:13 PM 59.0 °F - 33.8 °F 39% 29.96 in 10.0 mi NNW 10.4 mph - N/A   Clear
9:32 PM 59.0 °F - 33.8 °F 39% 29.96 in 10.0 mi North 10.4 mph - N/A   Clear
9:53 PM 59.0 °F - 33.8 °F 39% 29.96 in 10.0 mi North 10.4 mph - N/A   Clear
10:13 PM 59.0 °F - 35.6 °F 42% 29.96 in 10.0 mi North 8.1 mph - N/A   Clear
10:33 PM 55.4 °F - 33.8 °F 44% 29.96 in 10.0 mi North 8.1 mph - N/A   Clear
10:53 PM 53.6 °F - 33.8 °F 47% 29.96 in 10.0 mi North 8.1 mph - N/A   Clear
11:12 PM 55.4 °F - 35.6 °F 47% 29.96 in 10.0 mi North 5.8 mph - N/A   Clear
11:32 PM 53.6 °F - 35.6 °F 51% 29.96 in 10.0 mi North 6.9 mph - N/A   Clear
11:53 PM 51.8 °F - 33.8 °F 50% 29.96 in 10.0 mi North 5.8 mph - N/A   Clear